User: anonymous   Login
Location: Klickitat County Star Party
(45.8642°N, 120.6771°W)
Time: 18:27:02
(UTC-08:00)
Language:

BEESAT - Orbit

View from above orbital plane
View from above orbital plane
View from above satellite
View from above satellite

Ground track
Ground track

The orbit data is extracted from the following two-line orbital elements,

1 35933U 09051C   19318.75413224 +.00000103 +00000-0 +34344-4 0  9994
2 35933 098.6010 131.0432 0006897 083.4082 276.7900 14.56412584538500
Epoch (UTC): 14 November 2019 18:05:57
Eccentricity: 0.0006897
inclination: 98.6010°
perigee height: 700 km
apogee height: 709 km
right ascension of ascending node: 131.0432°
argument of perigee: 83.4082°
revolutions per day: 14.56412584
mean anomaly at epoch: 276.7900°
orbit number at epoch: 53850

The dashed part of the orbit path shows where the satellite is in the earth's shadow,  

DLR